Regional Weather Roundup
Issued by NWS

Home | Current Version | Previous Version | Text Only | Print | Product List | Glossary On
Versions: 1 2 3 4 5 6 7 8 9 10 11 12 13 14 15 16 17 18 19 20 21 22 23 24 25 26 27 28 29 30 31 32 33 34 35 36 37 38 39 40 41 42 43 44 45 46 47 48 49 50
000
ASHW40 PHFO 240812
RWRHI

WEATHER ROUNDUP FOR HAWAII
NATIONAL WEATHER SERVICE HONOLULU HI
1000 PM HST SUN APR 23 2017

THIS IS AN AUTOMATED REPORT THAT HAS NOT BEEN QUALITY CONTROLLED.

NOTE..."FAIR" INDICATES FEW OR NO CLOUDS BELOW 12,000 FEET WITH NO
SIGNIFICANT WEATHER AND/OR OBSTRUCTIONS TO VISIBILITY.

* - THESE SITES REPORT LIMITED FIELDS

HIZ001>004-240900-
KAUAI-NIIHAU-

CITY           SKY/WX    TMP DP  RH WIND       PRES   REMARKS
LIHUE APT      MOCLDY    77  67  71 E12       30.08R
PORT ALLEN*      N/A     75 N/A N/A NE7         N/A
POIPU*           N/A     75 N/A N/A NE6G12      N/A
PRINCEVILLE*     N/A     73 N/A N/A SE5         N/A
KOKOLE POINT*  NOT AVBL
MOLOAA DAIRY*    N/A     75  68  78 E5G12       N/A
WAIMEA HTS*    NOT AVBL
PUU OPAE*      NOT AVBL
PUU LUA*       NOT AVBL
MAKAHA RIDGE*  NOT AVBL
$$

HIZ005>011-240900-
OAHU-

CITY           SKY/WX    TMP DP  RH WIND       PRES   REMARKS
HONOLULU       PTCLDY    77  66  68 E8        30.06R
KALAELOA       PTCLDY   N/A N/A N/A NE5       30.07R
KANEOHE MCB    NOT AVBL
WHEELER FIELD  FAIR      67  64  90 NW7       30.07R
BELLOWS*       NOT AVBL
KAHUKU*        NOT AVBL
WHEELER*       NOT AVBL
WAIANAE HARBOR NOT AVBL
DILLINGHAM*      N/A     88  84  89 CALM        N/A  HX 112
KAHUKU TRN*      N/A     73  68  83 W7G17       N/A
KAWAILOA*        N/A     70  64  83 E1G8        N/A
KII*             N/A     77  68  73 E16         N/A
MAKUA RANGE*     N/A     75  63  64 W6G13       N/A
OAHU FOREST NW NOT AVBL
SCHOFIELD BRK* NOT AVBL
SCHOFIELD S*   NOT AVBL
WAIANAE VLY*   NOT AVBL
KUAOKALA*      NOT AVBL
HONOULIUULI*   NOT AVBL
MOKUOLOE IS*   NOT AVBL
PALEHUA*       NOT AVBL
WAIAWA PHB*    NOT AVBL
$$

HIZ012>013-240900-
MOLOKAI-

CITY           SKY/WX    TMP DP  RH WIND       PRES   REMARKS
MOLOKAI AIRPT  PTCLDY    67  65  93 NE6       30.07R
KALAUPAPA      NOT AVBL
MAKAPULAPAI*   NOT AVBL
MOLOKAI 1*     NOT AVBL
PUU ALII*      NOT AVBL
$$

HIZ016-240900-
KAHOOLAWE-

CITY           SKY/WX    TMP DP  RH WIND       PRES   REMARKS
KAHOOLAWE*     NOT AVBL
HAKIOAWA*      NOT AVBL
HONOKANAIA*      N/A     78  62  57 NE14G24   29.98R
KANELOA*         N/A     73  63  68 E13G23    30.12R
KEALIALALO*    NOT AVBL
LUA MAKIKA*    NOT AVBL
$$

HIZ014>015-240900-
LANAI-

CITY           SKY/WX    TMP DP  RH WIND       PRES   REMARKS
LANAI CITY     FAIR      69  65  86 NE10      30.11S
LANAI 1*       NOT AVBL
$$

HIZ017>028-240900-
MAUI-

CITY           SKY/WX    TMP DP  RH WIND       PRES   REMARKS
KAHULUI        CLOUDY    76  62  62 E9G20     30.04S
KAPALUA-W MAUI NOT AVBL
HANA AIRPORT   NOT AVBL
HANA*            N/A     75 N/A N/A E5G10       N/A
HALEAKALA SUMM   N/A     41   5  22 E23         N/A
MAALAEA BAY*   NOT AVBL
HALEAKALA*     NOT AVBL
KAUPO GAP*     NOT AVBL
KULA 1*          N/A     56  12  17 E14G30      N/A
$$

HIZ023>026-240900-
BIG ISLAND OF HAWAII COAST AND LOWER SLOPES-

CITY           SKY/WX    TMP DP  RH WIND       PRES   REMARKS
KAILUA KONA    MOCLDY    78  63  59 SE10      30.01R
HILO           CLOUDY    72  67  84 S5        30.09R
HONOKAA*         N/A     68 N/A N/A VRB1        N/A
KAWAIHAE MWT*    N/A     79 N/A N/A NE2         N/A
KAWAIHAE*      NOT AVBL
SOUTH POINT*     N/A     72 N/A N/A VRB17G26    N/A
UPOLU AIRPORT* NOT AVBL
KAMUELA*       SUNNY     63  61  94 CALM      30.14S
HAKALAU*         N/A    N/A N/A N/A SW7G14      N/A
KALOKO-HONOKO* NOT AVBL
PALI 2*          N/A     64  52  63 S8          N/A
KEALAKOMO*       N/A    N/A N/A N/A NE14        N/A
KAUPULEHU*     NOT AVBL
KAPAPALA*        N/A     62  60  93 N5          N/A
LOWER KAHUKU*  NOT AVBL
PUHE CS*       NOT AVBL
PUHO CS*       NOT AVBL
PTA KEAMUKU*     N/A     61  57  88 CALM        N/A
WAIKOLOA*      NOT AVBL
$$

HIZ027>028-240900-
BIG ISLAND OF HAWAII INTERIOR AND SUMMMITS-

CITY           SKY/WX    TMP DP  RH WIND       PRES   REMARKS
BRADSHAW FIELD CLOUDY    60   8  12 SE18G25   30.35R
MK VISITOR CEN   N/A     45   5  19 E12         N/A
MAUNA KEA*       N/A     32 -17  11 E10         N/A  WCI  24
MAUNA LOA*     NOT AVBL
MAUNA LOA 1*   NOT AVBL
PTA KIPUKA*      N/A     68  68 100 S3          N/A
PTA RANGE 17*    N/A     66   9  10 E18G30      N/A
PTA WEST*        N/A     70  66  88 NE3G9       N/A
NENE CABIN*    NOT AVBL
AHUMOA*        NOT AVBL
PTA PORTABLE*  NOT AVBL
PUU MALI*        N/A     54  50  87 SW2         N/A
$$

HIC003-240900-
NORTHWEST ISLANDS-

CITY           SKY/WX    TMP DP  RH WIND       PRES   REMARKS
MIDWAY ISLAND  CLEAR     73  70  88 SW9       30.04R
MIDWAY NOS*    NOT AVBL
FRENCH FRIGATE NOT AVBL
$$

PHZ110>124-180-240900-
BUOY REPORTS

STATION/POSITION TIME  TEMP    WIND        PRES    WAVE   SWELL
                       AIR SEA DIR/SP/G            HT/PER HT/DIR
                 (UTC) (F)     (DEG/KT/KT) (MB)    (FT/S) (FT/D)
BUOY 51001       0750   75 76  130/ 14/ 16 1018.5R   5/ 8   5/110
BUOY 51101       0750   76 76  120/ 12/ 16 1019.0R   5/ 8   5/110
BUOY 51100       NOT AVBL
BUOY 51002       0750   78 79   80/ 21/ 25 1016.0R   8/ 8   5/ 90
BUOY 51003       0750   78 79   90/ 12/ 16 1016.6R   7/ 8   7/110
BUOY 51004       0650      78   70/ 19/ 21 1016.8    9/ 9   7/ 90
BARBERS PT BUOY  NOT AVBL
WAIMEA BAY BUOY  0702      77                N/A     5/11   3
KAILUA BAY BUOY  0734      78                N/A     7/11   5
LANAI BUOY       0745      78                N/A     3/12   2/230
BARBERS PT 2     NOT AVBL
PAUWELA MAUI     0739      77                N/A     6/11   3/340
HILO             0742      78                N/A     7/ 8   3/350
KANEOHE BAY BUOY 0755      78                N/A     6/11   3/360
HANALEI KAUAI    0752      77                N/A     5/10   2
KAHULUI HARBOR   0742   77 79   60/  5/ 10 1017.7S
HONOLULU HARBOR  0748   77 79   90/  3/  5 1018.7R
KILO NALU        NOT AVBL
HILO HARBOR      0742   74 77  220/  5/  6 1018.7R
MOKUOLOE         0736   77 79  100/  8/ 15 1018.2R
NAWILIWILI       0748   77      70/ 10/ 11 1018.1R
WHOTS BUOY       NOT AVBL
BUOY 51028       NOT AVBL
$$

......................KEY........................................
  SKY/WX - SKY CONDITIONS/PRESENT WEATHER
  TMP    - TEMPERATURE IN FAHRENHEIT
  DWPT   - DEWPOINT IN FAHRENHEIT
  RH     - RELATIVE HUMIDITY IN PERCENT
  WIND   - DIRECTION AND SPEED /MPH FOR ISLANDS...KTS FOR BUOYS/
  PRES   - MEAN SEA LEVEL PRESSURE IN INCHES OF HG
  VSB    - VISIBILITY IN MILES
  HX     - HEAT INDEX
  WCI    - WIND CHILL INDEX
  VRB    - VARIABLE WIND DIRECTION
  N/A    - NOT AVAILABLE




USA.gov is the U.S. government's official web portal to all federal, state and local government web resources and services.